#timestamp,LO_Frequency,Hit,StdDev 
1545523215.3,286046998.2,N
1545523235.1,286047001.2,N
1545523255.9,286046999.5,N
1545523275.7,286047002.7,N
1545523295.5,286047000.5,N
1545523315.4,286047002.6,N
1545523335.2,286047001.7,N
1545523355.1,286046999.9,N
1545523356.0,286046999.9,N
1545523375.8,286047000.5,N
1545523395.6,286047002.4,N
1545523415.5,286047002.6,N
1545523435.3,286047003.7,N
1545523455.1,286047000.2,N
1545523475.9,286047001.9,N
1545523495.7,286047004.2,N
1545523515.6,286047000.2,N
1545523535.4,286047000.2,N
1545523555.2,286047002.7,N
1545523575.1,286047000.0,N
1545523576.0,286047000.0,N
1545523595.8,286047002.4,N
1545523615.6,286047003.1,N
1545523635.5,286047002.3,N
1545523655.3,286046999.8,N
1545523675.2,286047000.8,N
1545523695.9,286047000.5,N
1545523715.7,286046998.5,N
1545523735.6,286047000.6,N
1545523755.4,286047000.1,N
1545523775.2,286047002.7,N
1545523795.1,286047002.6,N
1545523796.0,286047002.6,N
1545523815.8,286047001.8,N
1545523835.6,286047001.5,N
1545523855.5,286047004.3,Y
1545523875.3,286047004.0,P
1545523895.2,286047003.5,N
1545523915.9,286047005.5,P
1545523935.7,286047001.3,N
1545523955.6,286047003.0,N
1545523975.4,286047003.7,N
1545523995.3,286047003.2,N
1545524015.1,286047005.9,Y
1545524016.0,286047005.9,P
1545524035.8,286047002.7,N
1545524055.7,286047000.8,N
1545524075.5,286046999.1,N
1545524095.4,286046998.2,N
1545524115.2,286046999.3,N
1545524135.0,286046999.5,N
1545524135.9,286046999.5,N
1545524155.8,286046997.1,N
1545524175.6,286046997.8,N
1545524195.4,286046995.0,N
1545524215.3,286046994.9,N
1545524235.1,286046998.0,N
1545524255.9,286046995.6,N
1545524275.7,286046995.3,N
1545524295.5,286046998.0,N
1545524315.4,286046997.7,N
1545524335.2,286046997.6,N
1545524355.0,286046997.0,N
1545524356.0,286046997.0,N
1545524375.8,286046996.7,N
1545524395.6,286046996.6,N
1545524415.5,286046997.1,N
1545524435.3,286046997.1,N
1545524455.1,286047001.1,N
1545524475.9,286046999.1,N
1545524495.7,286046998.0,N
1545524515.5,286046997.8,N
1545524535.4,286046995.5,N
1545524555.2,286046995.0,N
1545524575.1,286046995.4,N
1545524576.0,286046995.4,N
1545524595.8,286046995.3,N
1545524615.6,286046997.3,N
1545524635.5,286046999.5,N
1545524655.3,286046998.2,N
1545524675.1,286046999.7,N
1545524695.9,286047000.9,N
1545524715.7,286046998.4,N
1545524735.6,286047000.0,N
1545524755.4,286047002.3,N
1545524775.2,286047002.3,N
1545524795.1,286046999.9,N
1545524796.0,286046999.9,N
1545524815.8,286047002.2,N
1545524835.6,286047002.3,N
1545524855.5,286047000.1,N
1545524875.3,286047000.4,N
1545524895.2,286047001.0,N
1545524915.9,286047000.3,N
1545524935.7,286047001.2,N
1545524955.6,286046998.3,N
1545524975.4,286046998.9,N
1545524995.2,286046998.2,N
1545525045.1,286047000.5,E
1545525055.0,286046998.5,N
1545525055.9,286046998.5,P
1545525075.8,286046999.2,P
1545525095.6,286046997.5,Y
1545525115.5,286046998.3,P
1545525135.3,286047000.6,N
1545525155.1,286047000.2,N
1545525175.9,286047000.5,N
1545525195.7,286047002.4,N
1545525215.5,286047002.4,N
1545525235.4,286047001.0,N
1545525255.2,286047000.4,N
1545525275.1,286046998.2,N
1545525276.0,286046998.2,N
1545525295.8,286047000.9,N
1545525315.6,286046999.9,N
1545525335.5,286047000.5,N
1545525355.3,286047001.2,N
1545525375.2,286047000.1,N
1545525395.9,286047002.7,N
1545525415.7,286047002.0,N
1545525435.6,286047000.1,N
1545525455.4,286047002.2,N
1545525475.2,286047000.7,N
1545525495.1,286046999.0,N
1545525496.0,286046999.0,N
1545525515.8,286046997.9,N
1545525535.7,286046997.1,N
1545525555.5,286046999.0,N
1545525575.3,286046997.1,N
1545525595.2,286046997.7,N
1545525615.0,286046996.9,N
1545525615.9,286046996.9,N
1545525635.7,286046998.9,N
1545525655.6,286046998.1,N
1545525675.4,286047001.1,N
1545525695.3,286047000.9,N
1545525715.1,286047002.8,N
1545525716.0,286047002.8,N
1545525735.8,286047002.6,N
1545525755.7,286047000.2,N
1545525775.5,286047001.5,N
1545525795.3,286047002.4,N
1545525815.2,286046999.7,N
1545525835.0,286047000.4,N
1545525835.9,286047000.4,N
1545525855.8,286047000.7,N
1545525875.6,286046999.7,N
1545525895.4,286047000.6,N
1545525915.3,286047000.6,N
1545525935.1,286046999.2,N
1545525955.8,286046999.4,N
1545525975.7,286046997.1,N
1545525995.5,286046999.6,N
1545526015.4,286046999.0,N
1545526035.2,286047000.4,N
1545526055.0,286047000.8,N
1545526055.9,286047000.8,N
1545526075.8,286046998.7,N
1545526095.6,286046998.2,N
1545526115.5,286046998.3,N
1545526135.3,286047000.5,N
1545526155.1,286047000.4,N
1545526175.9,286047000.9,N
1545526195.7,286047002.5,N
1545526215.5,286047001.4,N
1545526235.4,286047003.7,N
1545526255.2,286047001.9,N
1545526275.1,286046999.8,N
1545526276.0,286046999.8,N
1545526295.8,286047002.5,N
1545526315.6,286047002.8,N
1545526335.5,286047002.3,N
1545526355.3,286047002.8,N
1545526375.1,286046999.8,N
1545526395.9,286046999.8,N
1545526415.7,286047002.4,N
1545526435.6,286047002.0,N
1545526455.4,286047002.1,N
1545526475.2,286047003.4,N
1545526495.1,286047005.9,Y
1545526496.0,286047005.9,P
1545526515.8,286047004.3,N
1545526535.7,286047001.8,N
1545526555.5,286047001.9,N
1545526575.3,286046999.7,N
1545526595.2,286047000.4,N
1545526615.9,286046998.1,N
1545526635.7,286047001.2,N
1545526655.6,286046999.0,N
1545526675.4,286047001.1,N
1545526695.2,286047000.1,N
1545526715.1,286046998.4,N
1545526716.0,286046998.4,N
1545526735.8,286046999.5,N
1545526755.7,286046996.7,N
1545526775.5,286046997.4,N
1545526795.3,286046997.8,N
